Location: Stilling
(56.0622°N, 9.9882°E)
Time: 12:55:44
(UTC+00:00)

GP-B - Pass Details

Date: 13 July 2020
Orbit: 631 x 635 km, 89.8° (Epoch: 06 August)

Event Time Altitude Azimuth Distance (km) Brightness Sun altitude
Rises 21:39:42 0° 4° (N) 2,944 7.7 -9.1°
Reaches altitude 10° 21:42:02 10° 11° (N) 2,030 6.6 -9.2°
Maximum altitude 21:46:19 45° 84° (E) 869 3.7 -9.5°
Enters shadow 21:50:03 13° 155° (SSE) 1,816 4.8 -9.7°
